Location: Helsinki
(60.1699°N, 24.9384°E)
Time: 20:37:29
(UTC+02:00)

Transit 2A Rocket - Pass Details

Date: 26 September 2023
Orbit: 593 x 903 km, 66.7° (Epoch: 28 November)

Event Time Altitude Azimuth Distance (km) Brightness Sun altitude
Rises 18:09:44 0° 252° (WSW) 3,238 10.9 6.5°
Reaches altitude 10° 18:12:16 10° 257° (WSW) 2,261 10.9 6.2°
Maximum altitude 18:17:18 54° 335° (NNW) 848 5.5 5.6°
Drops below altitude 10° 18:21:56 10° 53° (NE) 2,077 6.7 5.0°
Sets 18:24:11 0° 59° (ENE) 2,951 7.4 4.7°
